Location: D�derode
(51.8092°N, 10.1065°E)
Time: 01:55:55
(UTC+00:00)

BREEZE-M DEB (TANK) - Pass Details

Date: 18 April 2021
Orbit: 314 x 13086 km, 49.6° (Epoch: 09 May)

Event Time Altitude Azimuth Distance (km) Brightness Sun altitude
Rises 19:47:10 0° 221° (SW) 16,152 10.3 -12.4°
Reaches altitude 10° 20:06:04 10° 221° (SW) 12,834 9.7 -14.6°
Maximum altitude 20:44:06 58° 156° (SSE) 2,953 6.1 -18.8°
Drops below altitude 10° 20:52:17 10° 79° (E) 3,271 6.5 -19.6°
Sets 20:54:00 0° 74° (ENE) 3,796 6.9 -19.7°
